| time (UTC) | temp F | wind direction | speed knots | gust knots | rain 1hr in | rain 24hr in | rain mn in | humidity % | barometer mb |
| 20260503223039 | 56 | 181 | 1.7 | 5.2 | 0.00 | 0.00 | 0.00 | 64 | 1009.7 |
| 20260503221621 | 56 | 203 | 1.7 | 4.3 | 0.00 | 0.00 | 0.00 | 65 | 1009.8 |
| 20260503220048 | 57 | 188 | 1.7 | 4.3 | 0.00 | 0.00 | 0.00 | 63 | 1010.1 |
| 20260503214611 | 57 | 277 | 0.9 | 7.0 | 0.00 | 0.00 | 0.00 | 63 | 1010.1 |
| 20260503213020 | 57 | 199 | 2.6 | 5.2 | 0.00 | 0.00 | 0.00 | 66 | 1010.1 |
| 20260503211622 | 57 | 236 | 1.7 | 5.2 | 0.00 | 0.00 | 0.00 | 65 | 1009.9 |
| 20260503210038 | 57 | 201 | 2.6 | 10.4 | 0.00 | 0.00 | 0.00 | 65 | 1009.7 |
| 20260503204504 | 59 | 174 | 2.6 | 8.7 | 0.00 | 0.00 | 0.00 | 64 | 1009.6 |
| 20260503203106 | 58 | 198 | 3.5 | 8.7 | 0.00 | 0.00 | 0.00 | 63 | 1009.6 |
| 20260503201502 | 56 | 177 | 2.6 | 8.7 | 0.00 | 0.00 | 0.00 | 67 | 1009.8 |
| 20260503200101 | 54 | 199 | 2.6 | 5.2 | 0.00 | 0.00 | 0.00 | 70 | 1010.2 |
| 20260503194521 | 53 | 148 | 3.5 | 6.1 | 0.00 | 0.00 | 0.00 | 70 | 1010.2 |
| 20260503193103 | 55 | 238 | 2.6 | 8.7 | 0.00 | 0.00 | 0.00 | 69 | 1010.5 |
| 20260503191526 | 55 | 205 | 4.3 | 7.0 | 0.00 | 0.00 | 0.00 | 67 | 1010.6 |
| 20260503190110 | 56 | 214 | 2.6 | 7.0 | 0.00 | 0.00 | 0.00 | 67 | 1010.8 |
| 20260503184549 | 56 | 195 | 2.6 | 9.6 | 0.00 | 0.00 | 0.00 | 67 | 1011.0 |
| 20260503183011 | 56 | 251 | 3.5 | 7.8 | 0.00 | 0.00 | 0.00 | 67 | 1011.3 |
| 20260503181603 | 56 | 172 | 2.6 | 9.6 | 0.00 | 0.00 | 0.00 | 66 | 1011.4 |
| 20260503180026 | 55 | 233 | 4.3 | 8.7 | 0.00 | 0.00 | 0.00 | 67 | 1011.7 |
| 20260503174614 | 52 | 197 | 3.5 | 7.0 | 0.00 | 0.00 | 0.00 | 66 | 1011.9 |
| 20260503173050 | 56 | 186 | 3.5 | 9.6 | 0.00 | 0.00 | 0.00 | 64 | 1012.0 |
| 20260503171626 | 55 | 172 | 5.2 | 7.8 | 0.00 | 0.00 | 0.00 | 64 | 1012.1 |
| 20260503160125 | 52 | 205 | 3.5 | 7.0 | 0.00 | 0.00 | 0.00 | 70 | 1013.2 |
| 20260503150118 | 53 | 213 | 0.9 | 6.1 | 0.00 | 0.00 | 0.00 | 52 | 1013.9 |
| 20260503140118 | 48 | 207 | 0.9 | 4.3 | 0.00 | 0.00 | 0.00 | 61 | 1014.6 |
| 20260503130137 | 46 | 233 | 0.0 | 2.6 | 0.00 | 0.00 | 0.00 | 70 | 1014.6 |
| 20260503100125 | 32 | 302 | 0.0 | 0.9 | 0.00 | 0.00 | 0.00 | 83 | 1014.2 |
| 20260503081527 | 31 | 302 | 0.0 | 0.9 | 0.00 | 0.00 | 0.00 | 81 | 1014.9 |
| 20260503080113 | 31 | 302 | 0.0 | 0.9 | 0.00 | 0.00 | 0.00 | 81 | 1015.0 |
| 20260503071556 | 31 | 302 | 0.0 | 0.9 | 0.00 | 0.00 | 0.00 | 80 | 1015.1 |
| 20260503070135 | 31 | 143 | 0.0 | 0.9 | 0.00 | 0.00 | 0.00 | 79 | 1015.1 |
| 20260503053021 | 32 | 282 | 0.0 | 0.9 | 0.00 | 0.00 | 0.00 | 80 | 1015.6 |
| 20260503051614 | 32 | 283 | 0.0 | 0.9 | 0.00 | 0.00 | 0.00 | 80 | 1015.7 |
| 20260503050033 | 32 | 282 | 0.0 | 0.0 | 0.00 | 0.00 | 0.00 | 81 | 1015.6 |
| 20260503044629 | 32 | 282 | 0.0 | 0.0 | 0.00 | 0.00 | 0.00 | 81 | 1015.7 |
| 20260503043035 | 32 | 282 | 0.0 | 0.0 | 0.00 | 0.00 | 0.00 | 81 | 1015.8 |
| 20260503041503 | 32 | 282 | 0.0 | 0.0 | 0.00 | 0.00 | 0.00 | 82 | 1015.8 |
| 20260503040049 | 33 | 282 | 0.0 | 0.9 | 0.00 | 0.00 | 0.00 | 82 | 1015.9 |
| 20260503034510 | 33 | 282 | 0.0 | 0.9 | 0.00 | 0.00 | 0.00 | 82 | 1016.0 |
| 20260503033110 | 34 | 282 | 0.0 | 0.9 | 0.00 | 0.00 | 0.00 | 81 | 1016.2 |
| 20260503031519 | 35 | 282 | 0.0 | 0.0 | 0.00 | 0.00 | 0.00 | 80 | 1016.1 |
| 20260503030121 | 36 | 282 | 0.0 | 0.9 | 0.00 | 0.00 | 0.00 | 79 | 1016.0 |
| 20260503024535 | 36 | 282 | 0.0 | 0.9 | 0.00 | 0.00 | 0.00 | 78 | 1016.1 |
| 20260503023017 | 37 | 282 | 0.0 | 0.0 | 0.00 | 0.00 | 0.00 | 77 | 1016.1 |
| 20260503021608 | 37 | 282 | 0.0 | 0.0 | 0.00 | 0.00 | 0.00 | 78 | 1016.2 |
| 20260503020019 | 38 | 282 | 0.0 | 0.9 | 0.00 | 0.00 | 0.00 | 77 | 1016.3 |
| 20260503014609 | 39 | 282 | 0.0 | 0.0 | 0.00 | 0.00 | 0.00 | 76 | 1016.2 |
| 20260503013027 | 39 | 282 | 0.0 | 0.0 | 0.00 | 0.00 | 0.00 | 74 | 1016.2 |
| 20260503011624 | 40 | 282 | 0.0 | 0.9 | 0.00 | 0.00 | 0.00 | 73 | 1016.2 |
| 20260503004509 | 41 | 282 | 0.0 | 0.9 | 0.00 | 0.00 | 0.00 | 70 | 1016.0 |
| 20260503003124 | 41 | 283 | 0.0 | 0.9 | 0.00 | 0.00 | 0.00 | 70 | 1016.0 |
| 20260503001547 | 42 | 283 | 0.0 | 0.9 | 0.00 | 0.00 | 0.00 | 69 | 1016.0 |
| 20260503000015 | 42 | 283 | 0.9 | 2.6 | 0.00 | 0.00 | 0.00 | 68 | 1016.0 |
| 20260502234615 | 42 | 297 | 0.9 | 2.6 | 0.00 | 0.00 | 0.00 | 68 | 1015.9 |
| 20260502233027 | 42 | 275 | 0.0 | 2.6 | 0.00 | 0.00 | 0.00 | 68 | 1015.9 |
| 20260502231621 | 42 | 286 | 0.9 | 2.6 | 0.00 | 0.00 | 0.00 | 68 | 1015.9 |
| 20260502230035 | 43 | 309 | 0.9 | 4.3 | 0.00 | 0.00 | 0.00 | 68 | 1015.8 |